{"data":{"norad_id":48143,"epoch":"2026-05-25T02:26:57.127776Z","epoch_age_seconds":56372,"freshness":"FRESH","line1":"1 48143U 21027BD  26145.10205009  .00046235  00000+0  12637-2 0  9997","line2":"2 48143  53.1567 104.3635 0005858  46.4014 313.7475 15.36939831285133","mean_motion":15.36939831,"eccentricity":0.0005858,"inclination_deg":53.1567,"raan_deg":104.3635,"arg_perigee_deg":46.4014,"mean_anomaly_deg":313.7475,"bstar":0.0012637,"rev_number":28513,"period_min":93.692672345089,"perigee_km":451.16177662694,"apogee_km":459.16767292769,"semimajor_km":6833.3017247773,"source":"CELESTRAK","updated_at":"2026-05-25T13:38:16.651128Z"}}